Location: Dappach
(48.9767°N, 9.6998°E)
Time: 21:55:18
(UTC+00:00)

COSMOS 2428 - Pass Details

Date: 13 August 2024
Orbit: 842 x 857 km, 70.9° (Epoch: 09 September)

Event Time Altitude Azimuth Distance (km) Brightness Sun altitude
Exits shadow 01:35:25 38° 233° (SW) 1,276 3.1 -20.3°
Maximum altitude 01:37:35 66° 302° (WNW) 929 2.8 -20.1°
Drops below altitude 10° 01:43:16 10° 24° (NNE) 2,491 6.3 -19.6°
Sets 01:45:46 0° 28° (NNE) 3,433 7.5 -19.4°
